Webcam Flughafen St.Gallen-Altenrhein

Live-Bilder und Zeitraffer LSZR / ACH.

 

Live aus Altenrhein
LIVE
LSZR 050050Z AUTO VRB01KT 9999 FEW080 11/11 Q1019
Zeitraffer heute
2020-08-05 00:14:54
LSZR 042150Z AUTO 11002KT CAVOK 13/12 Q1019